Location: La Oliva
(42.2466°N, 2.9955°E)
Time: 09:33:54
(UTC+00:00)

Terra - Pass Details

Date: 22 April 2021
Orbit: 701 x 703 km, 98.2° (Epoch: 10 May)

Event Time Altitude Azimuth Distance (km) Brightness Sun altitude
Exits shadow 21:03:52 34° 61° (ENE) 1,162 2.8 -23.8°
Drops below altitude 10° 21:07:51 10° 5° (N) 2,178 4.9 -24.3°
Sets 21:10:16 0° 356° (N) 3,101 5.9 -24.6°
